Flag for U.S.A. Weather past 2 weeks in Livonia, Michigan, U.S.A.

50 °F


Feels Like: 46 °F
Forecast: 41 / 53 °F
Wind: 10 mph from Southeast

Location: Detroit Metropolitan Wayne County Airport

Current Time: Nov 25, 2015 at 7:48:06 PM

Latest Report: Nov 25, 2015 at 6:53 PM

Visibility: 10 mi

Pressure: 30.37 "Hg

Humidity: 52%

Dew point: 33 °F

Location of LivoniaLocation

Historic Weather in Livonia — Graph


Livonia temperature yesterday

Maximum temperature yesterday: 40 °F (at 3:53 PM)
Minimum temperature yesterday: 24 °F (at 5:53 AM)
Average temperature yesterday: 32 °F

Past Weeks' High & Low Weather Summary

High65 °F (Nov 15, 2:53 PM)97% (Nov 11, 3:53 AM)30.47 "Hg (Nov 11, 3:53 AM)
Low21 °F (Nov 22, 10:53 PM)24% (Nov 19, 5:53 PM)29.35 "Hg (Nov 12, 6:53 AM)
Average43 °F67%30.07 "Hg
* Reported Nov 10 5:53 PM — Nov 25 5:53 PM, Livonia, Weather by CustomWeather, © 2015

Note: Actual official high and low records may vary slightly from our data, if they occured in-between our weather recording intervals... More about our weather records


Livonia weather history for previous 24 hours

Time TempWeatherWind HumidityBarometerVisibility
5:53 PM
Wed, Nov 25
50 °FPassing clouds.6 mph57%30.37 "Hg10 mi
4:53 PM52 °FPartly sunny.9 mph53%30.37 "Hg10 mi
3:53 PM54 °FPartly sunny.8 mph51%30.35 "Hg10 mi
2:53 PM54 °FPartly sunny.9 mph51%30.36 "Hg10 mi
1:53 PM52 °FScattered clouds.9 mph55%30.37 "Hg10 mi
12:53 PM51 °FScattered clouds.8 mph56%30.43 "Hg10 mi
11:53 AM48 °FPassing clouds.6 mph61%30.46 "Hg10 mi
10:53 AM46 °FPassing clouds.9 mph63%30.47 "Hg10 mi
9:53 AM42 °FPassing clouds.8 mph73%30.47 "Hg10 mi
8:53 AM39 °FScattered clouds.3 mph79%30.46 "Hg10 mi
7:53 AM37 °FBroken clouds.5 mph82%30.45 "Hg6 mi
6:53 AM33 °FPassing clouds.No wind88%30.45 "Hg8 mi
5:53 AM32 °FPassing clouds.No wind88%30.45 "Hg7 mi
4:53 AM32 °FPassing clouds.No wind88%30.45 "Hg7 mi
3:53 AM32 °FIce fog.No wind88%30.44 "Hg6 mi
2:53 AM35 °FPassing clouds.3 mph82%30.44 "Hg4 mi
1:53 AM35 °FFog.No wind85%30.43 "Hg3 mi
12:53 AM35 °FFog.3 mph85%30.43 "Hg5 mi
11:53 PM
Tue, Nov 24
35 °FFog.3 mph85%30.43 "Hg5 mi
10:53 PM35 °FFog.3 mph85%30.43 "Hg5 mi
9:53 PM34 °FFog.No wind85%30.43 "Hg6 mi
8:53 PM35 °FPassing clouds.No wind85%30.43 "Hg7 mi
7:53 PM33 °FPassing clouds.No wind85%30.43 "Hg9 mi
Weather by CustomWeather, © 2015

See weather overviewHow to use our weather pages